Weather History for Riverside March, CA

Change the Weather History Date:

Monday, January 28, 2013

  Actual Average Record
Temperature  
Mean Temperature 42 °F -  
Max Temperature 53 °F 63 °F 77 °F (2003)
Min Temperature 31 °F 39 °F 27 °F (2009)
Degree Days  
Heating Degree Days 23    
Moisture  
Dew Point 35 °F    
Average Humidity 78    
Maximum Humidity 99    
Minimum Humidity 49    
Precipitation  
Precipitation 0.00 in - - ()
Sea Level Pressure  
Sea Level Pressure 30.08 in    
Wind  
Wind Speed 5 mph (North)    
Max Wind Speed 13 mph    
Max Gust Speed 21 mph    
Visibility 10 miles    
Events Rain    
Averages and records for this station are not official NWS values.
T = Trace of Precipitation, MM = Missing Value Source: NWS Daily Summary

Daily Weather History Graph

Daily Weather History Graph

Search for Another Location

Airport:

Trip Planner

Search our weather history database for the weather conditions in past years. The results will help you decide how hot, cold, wet, or windy it might be!

Date:

Astronomy

Jan. 28, 2013 Rise Set
Actual Time 6:48 AM PST 5:16 PM PST
Civil Twilight 6:21 AM PST 5:42 PM PST
Nautical Twilight 5:51 AM PST 6:12 PM PST
Astronomical Twilight 5:22 AM PST 6:42 PM PST
Moon 7:07 PM PST (1/28) 7:23 AM PST (1/28)
Length of Visible Light 11h 20m
Length of Day
10h 27m
Full, 97% of the Moon is Illuminated
Jan 28
Full
Feb 3
Last Quarter
Feb 9
New
Feb 17
First Quarter
Feb 25
Full

Hourly Weather History & Observations

Time (PST) Temp. Windchill Dew Point Humidity Pressure Visibility Wind Dir Wind Speed Gust Speed Precip Events Conditions
12:29 AM 42.8 °F 38.6 °F 37.4 °F 81% 30.00 in 10.0 mi NE 6.9 mph - N/A   Mostly Cloudy
12:32 AM 42.8 °F 38.6 °F 37.4 °F 81% 30.00 in 10.0 mi NE 6.9 mph - N/A Rain Light Rain
12:37 AM 42.8 °F 39.3 °F 37.4 °F 81% 30.00 in 10.0 mi ENE 5.8 mph - N/A Rain Light Rain
12:58 AM 43.5 °F 39.4 °F 37.9 °F 81% 30.01 in 10.0 mi NE 6.9 mph - 0.00 in Rain Light Rain
1:14 AM 42.8 °F - 37.4 °F 81% 30.01 in 10.0 mi ENE 1.2 mph - N/A   Mostly Cloudy
1:58 AM 40.8 °F 36.2 °F 37.4 °F 88% 30.01 in 10.0 mi South 6.9 mph - 0.00 in   Scattered Clouds
2:58 AM 40.1 °F - 37.0 °F 89% 30.03 in 10.0 mi South 2.3 mph - N/A   Scattered Clouds
3:58 AM 35.2 °F - 34.5 °F 97% 30.03 in 10.0 mi WSW 2.3 mph - N/A   Partly Cloudy
4:58 AM 36.3 °F 33.7 °F 35.4 °F 97% 30.04 in 10.0 mi SW 3.5 mph - N/A   Partly Cloudy
5:58 AM 34.5 °F - 32.7 °F 93% 30.05 in 10.0 mi East 2.3 mph - N/A   Partly Cloudy
6:58 AM 31.6 °F 28.3 °F 31.3 °F 99% 30.07 in 10.0 mi NNE 3.5 mph - N/A   Clear
7:58 AM 37.2 °F - 37.0 °F 99% 30.08 in 10.0 mi Calm Calm - N/A   Clear
8:58 AM 42.8 °F 40.1 °F 40.5 °F 91% 30.08 in 10.0 mi ESE 4.6 mph - N/A   Partly Cloudy
9:58 AM 47.1 °F - 42.3 °F 83% 30.10 in 10.0 mi ESE 4.6 mph - N/A   Clear
10:58 AM 48.9 °F - 36.0 °F 61% 30.10 in 10.0 mi Variable 2.3 mph - N/A   Clear
11:58 AM 51.6 °F - 35.2 °F 54% 30.08 in 10.0 mi North 12.7 mph 20.7 mph N/A   Scattered Clouds
12:58 PM 52.9 °F - 36.3 °F 53% 30.06 in 10.0 mi NNW 10.4 mph - N/A   Partly Cloudy
1:58 PM 53.4 °F - 36.3 °F 52% 30.06 in 10.0 mi NW 9.2 mph - N/A   Mostly Cloudy
2:58 PM 52.5 °F - 34.0 °F 49% 30.07 in 10.0 mi NW 10.4 mph - N/A   Mostly Cloudy
3:58 PM 51.8 °F - 33.4 °F 50% 30.07 in 10.0 mi West 6.9 mph - N/A   Scattered Clouds
4:58 PM 48.2 °F - 33.8 °F 58% 30.09 in 10.0 mi WNW 6.9 mph - N/A   Clear
5:58 PM 40.5 °F 35.1 °F 32.2 °F 72% 30.12 in 10.0 mi West 8.1 mph - N/A   Clear
6:58 PM 46.6 °F - 34.5 °F 63% 30.14 in 10.0 mi Variable 5.8 mph - N/A   Partly Cloudy
7:58 PM 39.6 °F 37.4 °F 32.5 °F 76% 30.14 in 10.0 mi NW 3.5 mph - N/A   Clear
8:58 PM 36.1 °F 32.3 °F 31.6 °F 84% 30.16 in 10.0 mi NNW 4.6 mph - N/A   Partly Cloudy
9:58 PM 35.6 °F 32.8 °F 31.3 °F 84% 30.17 in 10.0 mi SSW 3.5 mph - N/A   Clear
10:58 PM 35.8 °F - 31.6 °F 85% 30.18 in 10.0 mi SSE 1.2 mph - N/A   Clear
11:58 PM 32.4 °F - 29.7 °F 90% 30.18 in 10.0 mi Variable 2.3 mph - N/A   Clear